sat.trackr.live / text

‹ back to catalog

STARLINK-36867

NORAD 67983 · 2026-038Y

PAYLOAD ACTIVE UNKNOWN

§ Identity

Operator
Country
US
Launch date
2026-02-25
Launch site
AFWTR
Launch vehicle
Mass (kg)
RCS (m²)

Purposes: comms

External: N2YO · Heavens-Above · Gunter

§ Orbital elements

Epoch: 2026-09-17T23:42:48.878208Z

Period
93.91 min
Inclination
97.2851°
Eccentricity
0.0001853
Mean motion
15.33445532 rev/d
Perigee alt
464.3 km
Apogee alt
466.8 km
Semi-major
6,843.7 km
B*
5.9942e-4
RAAN
269.4405°
Arg perigee
278.2622°
Mean anomaly
81.8411°
Rev number
3,271

§ Raw data

STARLINK-368671 67983U 26038Y   26260.98806572  .00019327  00000+0  59942-3 0  99962 67983  97.2851 269.4405 0001853 278.2622  81.8411 15.33445532 32714

JSON: /api/v1/satellites/67983 · /tle

For live sub-satellite position, see the globe view (requires WebGL).

§ Visibility from observer

Set your observer location to see the next 7 days of passes ≥ 10°. The values pass through the URL so the page stays shareable.

No JS? Fill the form by hand. The geolocation button needs JavaScript.